Regional Weather Roundup
Issued by NWS

Home | Current Version | Previous Version | Text Only | Print | Product List | Glossary On
Versions: 1 2 3 4 5 6 7 8 9 10 11 12 13 14 15 16 17 18 19 20 21 22 23 24 25 26 27 28
000
ASUS45 KCYS 250910
RWRWY

WYOMING REGIONAL WEATHER ROUNDUP
NATIONAL WEATHER SERVICE CHEYENNE WY
300 AM MDT FRI APR 25 2014

NOTE:  "FAIR" INDICATES FEW OR NO CLOUDS BELOW 12,000 FEET
WITH NO SIGNIFICANT WEATHER AND/OR OBSTRUCTIONS TO VISIBILITY.

WYZ001-251000-
YELLOWSTONE NATIONAL PARK

CITY           SKY/WX    TMP DP  RH WIND       PRES   REMARKS
LK YELLOWSTONE   N/A     29  26  89 CALM      29.93F
W YELLOWSTONE  NOT AVBL

$$
WYZ002>013-054>058-071-098>099-251000-
NORTHERN WYOMING

CITY           SKY/WX    TMP DP  RH WIND       PRES   REMARKS
JACKSON        CLOUDY    36  34  93 S6        29.92F WCI  31
CODY           PTCLDY    43  30  61 SW12      29.82F
GREYBULL       CLEAR     43  28  55 E6        29.81F
WORLAND        CLEAR     39  29  67 W5        29.82F
SHERIDAN         N/A     36  21  55 W9          N/A  WCI  29
BUFFALO        PTCLDY    36  25  64 NW3       29.84F
GILLETTE       CLEAR     32  24  72 CALM      29.83S
HULETT         FAIR      36  28  75 SW10      29.84  WCI  28
NEWCASTLE      FAIR      36  27  69 N3        29.85

$$
WYZ014>020-022>026-101>103-251000-
CENTRAL WYOMING

CITY           SKY/WX    TMP DP  RH WIND       PRES   REMARKS
BIG PINEY      CLOUDY    30  20  66 NE8       29.95F WCI  22
PINEDALE       CLOUDY    30  28  93 CALM      29.96F
DUBOIS         FAIR      34  27  75 NW10      29.89F WCI  26
LANDER         PTCLDY    37  23  56 SE5       29.86F WCI  33
RIVERTON       PTCLDY    38  22  52 SW8       29.88S WCI  32
CASPER         CLEAR     33  23  66 W9        29.88F WCI  25
DOUGLAS        CLEAR     40  24  53 CALM      29.88F

$$
WYZ021-027>030-104>119-251000-
SOUTHERN WYOMING

CITY           SKY/WX    TMP DP  RH WIND       PRES   REMARKS
EVANSTON       CLOUDY    40  20  44 E6        29.93F
KEMMERER       CLOUDY    36  23  60 NW7       29.97R WCI  30
FORT BRIDGER   CLOUDY    38  26  60 W3        29.96F
ROCK SPRINGS   CLOUDY    41  18  39 S6        29.95F
DIXON          FAIR      39  25  58 CALM      29.99F
RAWLINS        CLEAR     29  18  63 NW6       29.96S WCI  23
SARATOGA       FAIR      37  23  56 SW13      29.97F WCI  29
LARAMIE        CLEAR     36  22  56 W8        29.96F WCI  30
CHEYENNE       CLEAR     44  24  45 W6        29.93F
TORRINGTON     CLEAR     44  27  51 W7        29.85S
PINE BLUFFS    FAIR      37  27  65 W10       29.91F WCI  30

$$



USA.gov is the U.S. government's official web portal to all federal, state and local government web resources and services.